Simultaneous Nadir Overpasses (SNOs) Predictions

Prediction of SNOs between LANDSAT-8 and METOP-A Satellite Orbit:

Table of predicted SNOs for the next 14.0 days since TLE Epoch: 7/18/2015
Index Date (LANDSAT-8) Time (LANDSAT-8) Lat,Lon (LANDSAT-8) SZA (LANDSAT-8 ) Date (METOP-A) Time (METOP-A) Lat,Lon (METOP-A) SZA (METOP-A ) Distance(km) Time Diff (sec)
1 07/18/2015 15:20:36 81.21, -8.70 62.35 07/18/2015 15:20:25 81.21, -8.81 62.33 1.83 11
2 07/18/2015 16:10:02 -81.23, 159.22 117.61 07/18/2015 16:11:04 -81.23, 159.29 117.57 1.26 62
3 07/21/2015 10:54:52 81.22, 57.79 62.86 07/21/2015 10:54:47 81.21, 57.67 62.85 1.93 5
4 07/21/2015 11:44:18 -81.23,-134.27 117.09 07/21/2015 11:45:26 -81.24,-134.19 117.05 1.35 68
5 07/24/2015 05:39:42 -81.21, -43.51 116.60 07/24/2015 05:38:29 -81.21, -43.35 116.62 2.62 73
6
